Time_in_sec,Latitude,Longitude,Altitude,Nbsat_max_qualitysignal,Nbsat_locked,valid_data
1314365167.31344056,0.00003612,0.00006573,-53336.05078125,1,1,0
1314365325.46548223,0.00003290,0.00006630,-59667.66796875,0,1,0
1314365325.51305962,0.00003282,0.00006631,-59669.72265625,0,1,0
1314365325.56545949,0.00003290,0.00006630,-59671.77343750,0,1,0
1314365325.61743259,0.00003282,0.00006631,-59673.82812500,0,1,0
1314365325.66548133,0.00003290,0.00006630,-59675.88281250,0,1,0
1314365325.71346092,0.00003281,0.00006631,-59677.93750000,0,1,0
1314365325.76548195,0.00003290,0.00006630,-59679.98828125,0,1,0
1314365325.81660390,0.00003281,0.00006631,-59682.04296875,0,1,0
1314365325.86855268,0.00003289,0.00006630,-59684.09375000,0,0,0
1314365325.91661525,0.00003281,0.00006631,-59686.14843750,0,0,0
1314365325.96504068,0.00003289,0.00006630,-59688.20312500,0,0,0
1314365326.01345801,0.00003281,0.00006631,-59690.25781250,0,0,0
1314365326.06560016,0.00003289,0.00006629,-59692.30859375,0,0,0
1314365326.11347127,0.00003281,0.00006631,-59694.36328125,0,0,0
1314365326.16447711,0.00003289,0.00006629,-59696.41796875,0,0,0
1314365326.21300650,0.00003280,0.00006631,-59698.47265625,0,0,0
1314365326.26547313,0.00003289,0.00006629,-59700.52343750,0,0,0
1314365326.31300068,0.00003280,0.00006631,-59702.57812500,0,0,0
1314365326.36549330,0.00003288,0.00006629,-59704.63281250,0,0,0
1314365326.41289306,0.00003280,0.00006630,-59706.68750000,0,0,0
1314365326.46558976,0.00003288,0.00006629,-59708.73828125,0,0,0
1314365326.51346087,0.00003280,0.00006630,-59710.79296875,0,0,0
1314365326.56486940,0.00003288,0.00006629,-59712.84765625,0,0,0
1314365326.61361933,0.00003280,0.00006630,-59714.90234375,0,0,0
1314365326.66545916,0.00003288,0.00006629,-59716.95703125,0,0,0
1314365326.71759653,0.00003280,0.00006630,-59719.01171875,0,0,0
1314365326.76465845,0.00003288,0.00006629,-59721.06250000,0,0,0
1314365326.81287026,0.00003279,0.00006630,-59723.11718750,0,0,0
1314365326.86458278,0.00003287,0.00006629,-59725.17187500,0,0,0
1314365326.91346312,0.00003279,0.00006630,-59727.22656250,0,0,0
1314365326.96460009,0.00003287,0.00006629,-59729.28125000,0,0,0
1314365327.01779246,0.00003279,0.00006630,-59731.33593750,0,0,0
1314365327.06549287,0.00003287,0.00006629,-59733.38671875,0,0,0
1314365327.11348271,0.00003279,0.00006630,-59735.44140625,0,0,0
1314365327.16550136,0.00003287,0.00006629,-59737.49609375,0,0,0
1314365327.21345401,0.00003279,0.00006630,-59739.55078125,0,0,0
1314365327.26459479,0.00003287,0.00006628,-59741.60546875,0,0,0
1314365327.31350398,0.00003278,0.00006630,-59743.66015625,0,0,0
1314365327.36452246,0.00003286,0.00006628,-59745.71484375,0,0,0
1314365327.41361451,0.00003278,0.00006630,-59747.76953125,0,0,0
1314365327.46548104,0.00003286,0.00006628,-59749.82421875,0,0,0
1314365327.51745796,0.00003278,0.00006630,-59751.87890625,0,0,0
1314365327.56470537,0.00003286,0.00006628,-59753.93359375,0,0,0
1314365327.61349869,0.00003278,0.00006629,-59755.98828125,0,0,0
1314365327.66465974,0.00003286,0.00006628,-59758.04296875,0,0,0
1314365327.71346092,0.00003278,0.00006629,-59760.09765625,0,0,0
1314365327.76454258,0.00003286,0.00006628,-59762.15234375,0,0,0
1314365327.81361127,0.00003278,0.00006629,-59764.20703125,0,0,0
1314365327.86556673,0.00003285,0.00006628,-59766.26171875,0,0,0
1314365327.91360879,0.00003277,0.00006629,-59768.31640625,0,0,0
1314365327.96497011,0.00003285,0.00006628,-59770.37109375,0,0,0
1314365328.01346278,0.00003277,0.00006629,-59772.42578125,0,0,0
1314365328.06483459,0.00003285,0.00006628,-59774.48046875,0,0,0
1314365328.11359525,0.00003277,0.00006629,-59776.53515625,0,0,0
1314365328.16560221,0.00003285,0.00006628,-59778.58984375,0,0,0
1314365328.21361542,0.00003277,0.00006629,-59780.64453125,0,0,0
1314365328.26548243,0.00003285,0.00006628,-59782.69921875,0,0,0
1314365328.31382918,0.00003277,0.00006629,-59784.75390625,0,0,0
1314365328.36458302,0.00003284,0.00006628,-59786.80859375,0,0,0
1314365328.41283154,0.00003276,0.00006629,-59788.86718750,0,0,0
1314365328.46559978,0.00003284,0.00006627,-59790.92187500,0,0,0
1314365328.51356769,0.00003276,0.00006629,-59792.97656250,0,0,0
1314365328.56481814,0.00003284,0.00006627,-59795.03125000,0,0,0
1314365328.61359453,0.00003276,0.00006629,-59797.08593750,0,0,0
1314365328.66546869,0.00003284,0.00006627,-59799.14062500,0,0,0
1314365328.71748829,0.00003276,0.00006629,-59801.19921875,0,0,0
1314365328.76460934,0.00003284,0.00006627,-59803.25390625,0,0,0
1314365328.81350064,0.00003276,0.00006629,-59805.30859375,0,0,0
1314365328.86559486,0.00003283,0.00006627,-59807.36328125,0,0,0
1314365328.91348648,0.00003276,0.00006628,-59809.42187500,0,0,0
1314365328.96561003,0.00003283,0.00006627,-59811.47656250,0,0,0
1314365329.01361537,0.00003275,0.00006628,-59813.53125000,0,0,0
1314365329.06548095,0.00003283,0.00006627,-59815.58593750,0,0,0
1314365329.11424255,0.00003275,0.00006628,-59817.64453125,0,0,0
1314365329.16492534,0.00003283,0.00006627,-59819.69921875,0,0,0
1314365329.21747351,0.00003275,0.00006628,-59821.75390625,0,0,0
1314365329.26560688,0.00003283,0.00006627,-59823.81250000,0,0,0
1314365329.31345153,0.00003275,0.00006628,-59825.86718750,0,0,0
1314365329.36467957,0.00003283,0.00006627,-59827.92187500,0,0,0
1314365329.41658378,0.00003275,0.00006628,-59829.98046875,0,0,0
1314365329.46946883,0.00003282,0.00006627,-59832.03515625,0,0,0
1314365329.51359582,0.00003274,0.00006628,-59834.08984375,0,0,0
1314365329.56467009,0.00003282,0.00006627,-59836.14843750,0,0,0
1314365329.61276937,0.00003274,0.00006628,-59838.20312500,0,0,0
1314365329.66459823,0.00003282,0.00006627,-59840.25781250,0,0,0
1314365329.71346712,0.00003274,0.00006628,-59842.31640625,0,0,0
1314365329.76458549,0.00003282,0.00006627,-59844.37109375,0,0,0
1314365329.81290627,0.00003274,0.00006628,-59846.42968750,0,0,0
1314365329.86545277,0.00003282,0.00006626,-59848.48437500,0,1,0
1314365329.91304564,0.00003274,0.00006628,-59850.54296875,0,1,0
1314365329.96476102,0.00003281,0.00006626,-59852.59765625,0,1,0
1314365330.01348686,0.00003274,0.00006628,-59854.65625000,0,1,0
1314365330.06559682,0.00003281,0.00006626,-59856.71093750,0,1,0
1314365330.11383176,0.00003273,0.00006628,-59858.76953125,0,1,0
1314365330.16449976,0.00003281,0.00006626,-59860.82421875,0,1,0
1314365330.21659827,0.00003273,0.00006628,-59862.88281250,0,1,0
1314365330.26549482,0.00003281,0.00006626,-59864.93750000,0,1,0
1314365330.31362748,0.00003273,0.00006627,-59866.99609375,0,1,0
1314365330.36559653,0.00003281,0.00006626,-59869.05078125,0,1,0
1314365330.41674376,0.00003273,0.00006627,-59871.10937500,0,1,0
1314365330.46559739,0.00003280,0.00006626,-59873.16796875,0,1,0
1314365330.51344919,0.00003273,0.00006627,-59875.22265625,0,1,0
1314365330.56560826,0.00003280,0.00006626,-59877.28125000,0,1,0
1314365330.61360669,0.00003272,0.00006627,-59879.33593750,0,1,0
1314365330.67091584,0.00003280,0.00006626,-59881.39453125,0,1,0
1314365330.71757507,0.00003272,0.00006627,-59883.45312500,0,1,0
1314365330.76487088,0.00003280,0.00006626,-59885.50781250,0,1,0
1314365330.81349230,0.00003272,0.00006627,-59887.56640625,0,1,0
1314365330.86458731,0.00003280,0.00006626,-59889.62500000,0,1,0
1314365330.91272378,0.00003272,0.00006627,-59891.67968750,0,1,0
1314365330.96473408,0.00003279,0.00006626,-59893.73828125,0,1,0
1314365331.01360369,0.00003272,0.00006627,-59895.79687500,0,1,0
1314365331.06548309,0.00003279,0.00006626,-59897.85156250,0,1,0
1314365331.11366963,0.00003272,0.00006627,-59899.91015625,0,1,0
1314365331.16560602,0.00003279,0.00006625,-59901.96875000,0,1,0
1314365331.21274972,0.00003271,0.00006627,-59904.02343750,0,1,0
1314365331.26559496,0.00003279,0.00006625,-59906.08203125,0,1,0
1314365331.31347466,0.00003271,0.00006627,-59908.14062500,0,1,0
1314365331.36550617,0.00003279,0.00006625,-59910.19921875,0,1,0
1314365331.41280365,0.00003271,0.00006627,-59912.25390625,0,1,0
1314365331.46548462,0.00003278,0.00006625,-59914.31250000,0,1,0
1314365331.51365209,0.00003271,0.00006627,-59916.37109375,0,1,0
1314365331.56459498,0.00003278,0.00006625,-59918.42968750,0,1,0
1314365331.61270618,0.00003271,0.00006627,-59920.48828125,0,1,0
1314365331.66484070,0.00003278,0.00006625,-59922.54296875,0,1,0
1314365331.71345711,0.00003271,0.00006626,-59924.60156250,0,1,0
1314365331.76561856,0.00003278,0.00006625,-59926.66015625,0,1,0
1314365331.81766462,0.00003270,0.00006626,-59928.71875000,0,1,0
1314365331.86547565,0.00003278,0.00006625,-59930.77734375,0,1,0
1314365331.91321707,0.00003270,0.00006626,-59932.83593750,0,1,0
1314365331.96444893,0.00003278,0.00006625,-59934.89062500,0,1,0
1314365332.01345062,0.00003270,0.00006626,-59936.94921875,0,1,0
1314365332.06622386,0.00003277,0.00006625,-59939.00781250,0,1,0
1314365332.11346865,0.00003270,0.00006626,-59941.06640625,0,1,0
1314365332.16545749,0.00003277,0.00006625,-59943.12500000,0,1,0
1314365332.21975780,0.00003270,0.00006626,-59945.18359375,0,1,0
1314365332.26547551,0.00003277,0.00006625,-59947.24218750,0,1,0
1314365332.31271887,0.00003269,0.00006626,-59949.30078125,0,1,0
1314365332.36547565,0.00003277,0.00006625,-59951.35546875,0,1,0
1314365332.42474174,0.00003269,0.00006626,-59953.41796875,0,1,0
1314365332.46565819,0.00003269,0.00006626,-59955.88671875,0,1,0
1314365332.51344872,0.00003269,0.00006626,-59957.53125000,0,1,0
1314365332.56561351,0.00003276,0.00006625,-59959.58984375,0,1,0
1314365332.61650586,0.00003269,0.00006626,-59961.64843750,0,1,0
1314365332.66584206,0.00003276,0.00006625,-59963.70703125,0,1,0
1314365332.71649075,0.00003269,0.00006626,-59965.76562500,0,1,0
1314365332.76464891,0.00003276,0.00006624,-59967.82421875,0,1,0
1314365332.81267762,0.00003269,0.00006626,-59969.88281250,0,1,0
1314365332.86866879,0.00003276,0.00006624,-59971.94140625,0,1,0
1314365332.91343427,0.00003268,0.00006626,-59974.00000000,0,1,0
1314365332.96481323,0.00003276,0.00006624,-59976.05859375,0,1,0
1314365333.01347280,0.00003268,0.00006626,-59978.12109375,0,1,0
1314365333.06548285,0.00003276,0.00006624,-59980.17968750,0,1,0
1314365333.11279225,0.00003268,0.00006626,-59982.23828125,0,1,0
1314365333.16478944,0.00003275,0.00006624,-59984.29687500,0,1,0
1314365333.21350288,0.00003268,0.00006625,-59986.35546875,0,1,0
1314365333.26479506,0.00003275,0.00006624,-59988.41406250,0,1,0
1314365333.31265163,0.00003268,0.00006625,-59990.47265625,0,1,0
1314365333.36449552,0.00003275,0.00006624,-59992.53125000,0,1,0
1314365333.41662741,0.00003268,0.00006625,-59994.58984375,0,1,0
1314365333.46547127,0.00003275,0.00006624,-59996.64843750,0,1,0
1314365333.51361132,0.00003267,0.00006625,-59998.71093750,0,1,0
1314365333.56462288,0.00003275,0.00006624,-60000.76953125,0,1,0
1314365333.62472796,0.00003267,0.00006625,-60002.82812500,0,1,0
1314365333.66550469,0.00003267,0.00006625,-60005.30078125,0,1,0
1314365333.71264696,0.00003267,0.00006625,-60006.94531250,0,1,0
1314365333.76551509,0.00003274,0.00006624,-60009.00390625,0,1,0
1314365333.81366992,0.00003267,0.00006625,-60011.06640625,0,1,0
1314365333.86554241,0.00003274,0.00006624,-60013.12500000,0,1,0
1314365333.91648316,0.00003267,0.00006625,-60015.18359375,0,1,0
1314365333.96448088,0.00003274,0.00006624,-60017.24218750,0,1,0
1314365334.01750755,0.00003267,0.00006625,-60019.30468750,0,1,0
1314365334.06465006,0.00003274,0.00006623,-60021.36328125,0,1,0
1314365334.11348939,0.00003266,0.00006625,-60023.42187500,0,1,0
1314365334.16451144,0.00003273,0.00006623,-60025.48046875,0,1,0
1314365334.21267247,0.00003266,0.00006625,-60027.54296875,0,1,0
1314365334.26545668,0.00003273,0.00006623,-60029.60156250,0,1,0
1314365334.31763458,0.00003266,0.00006625,-60031.66015625,0,1,0
1314365334.36467361,0.00003273,0.00006623,-60033.71875000,0,1,0
1314365334.41262746,0.00003266,0.00006625,-60035.78125000,0,1,0
1314365334.46561909,0.00003273,0.00006623,-60037.83984375,0,1,0
1314365334.51260495,0.00003266,0.00006625,-60039.89843750,0,1,0
1314365334.56553721,0.00003273,0.00006623,-60041.96093750,0,1,0
1314365334.61267471,0.00003266,0.00006624,-60044.01953125,0,1,0
1314365334.66545391,0.00003273,0.00006623,-60046.07812500,0,1,0
1314365334.71320128,0.00003265,0.00006624,-60048.14062500,0,1,0
1314365334.76465559,0.00003272,0.00006623,-60050.19921875,0,1,0
1314365334.80546141,0.00003265,0.00006624,-60052.26171875,0,1,0
1314365334.86465788,0.00003265,0.00006624,-60053.91015625,0,1,0
1314365334.91345906,0.00003265,0.00006624,-60056.38281250,0,1,0
1314365334.96455073,0.00003272,0.00006623,-60058.44140625,0,1,0
1314365335.01355910,0.00003265,0.00006624,-60060.50000000,0,1,0
1314365335.06549025,0.00003272,0.00006623,-60062.56250000,0,1,0
1314365335.10565162,0.00003265,0.00006624,-60064.62109375,0,1,0
1314365335.16465187,0.00003265,0.00006624,-60066.26953125,0,1,0
1314365335.22546411,0.00003265,0.00006624,-60068.74218750,0,1,0
1314365335.26462698,0.00003264,0.00006624,-60071.21484375,0,1,0
1314365335.31345749,0.00003264,0.00006624,-60072.86328125,0,1,0
1314365335.36467624,0.00003271,0.00006622,-60074.92578125,0,1,0
1314365335.41264606,0.00003264,0.00006624,-60076.98437500,0,1,0
1314365335.46553302,0.00003271,0.00006622,-60079.04687500,0,1,0
1314365335.51662111,0.00003264,0.00006624,-60081.10546875,0,1,0
1314365335.56466746,0.00003271,0.00006622,-60083.16796875,0,1,0
1314365335.61656547,0.00003264,0.00006624,-60085.22656250,0,1,0
1314365335.66469073,0.00003271,0.00006622,-60087.28906250,0,1,0
1314365335.71344995,0.00003264,0.00006624,-60089.34765625,0,1,0
1314365335.76465178,0.00003270,0.00006622,-60091.41015625,0,1,0
1314365335.81263089,0.00003264,0.00006624,-60093.47265625,0,1,0
1314365335.85754967,0.00003270,0.00006622,-60095.53125000,0,1,0
1314365335.91262579,0.00003270,0.00006622,-60097.17968750,0,1,0
1314365335.96564054,0.00003270,0.00006622,-60099.65234375,0,1,0
1314365336.00546479,0.00003263,0.00006623,-60101.71484375,0,1,0
1314365336.06464076,0.00003263,0.00006623,-60103.36328125,0,1,0
1314365336.11343861,0.00003263,0.00006623,-60105.83593750,0,1,0
1314365336.16565728,0.00003270,0.00006622,-60107.89843750,0,1,0
1314365336.21262383,0.00003263,0.00006623,-60109.96093750,0,1,0
1314365336.25744247,0.00003269,0.00006622,-60112.01953125,0,1,0
1314365336.31513858,0.00003269,0.00006622,-60113.67187500,0,1,0
1314365336.35661745,0.00003269,0.00006622,-60116.14453125,0,1,0
1314365336.40554690,0.00003269,0.00006622,-60117.79296875,0,1,0
1314365336.46461964,0.00003262,0.00006623,-60119.85546875,0,1,0
1314365336.51349497,0.00003262,0.00006623,-60122.32812500,0,1,0
1314365336.56563401,0.00003269,0.00006621,-60124.39062500,0,1,0
1314365336.61363721,0.00003262,0.00006623,-60126.45312500,0,1,0
1314365336.65979457,0.00003269,0.00006621,-60128.51171875,0,1,0
1314365336.71407366,0.00003269,0.00006621,-60130.16406250,0,1,0
1314365336.76570725,0.00003269,0.00006621,-60132.63671875,0,1,0
1314365336.82552862,0.00003262,0.00006623,-60134.69921875,0,1,0
1314365336.86461401,0.00003262,0.00006623,-60137.17187500,0,1,0
1314365336.91351342,0.00003262,0.00006623,-60138.82421875,0,1,0
1314365336.95680404,0.00003268,0.00006621,-60140.88281250,0,1,0
1314365337.01408911,0.00003268,0.00006621,-60142.53515625,0,1,0
1314365337.05749536,0.00003268,0.00006621,-60145.00781250,0,1,0
1314365337.11606979,0.00003268,0.00006621,-60146.65625000,0,1,0
1314365337.15655470,0.00003268,0.00006621,-60149.13281250,0,1,0
1314365337.21253395,0.00003268,0.00006621,-60150.78125000,0,1,0
1314365337.26557231,0.00003268,0.00006621,-60153.25781250,0,1,0
1314365337.31345940,0.00003261,0.00006623,-60155.32031250,0,1,0
1314365337.37253904,0.00003267,0.00006621,-60157.37890625,0,1,0
1314365337.40455389,0.00003267,0.00006621,-60159.85546875,0,1,0
1314365337.46565008,0.00003261,0.00006623,-60161.09375000,0,1,0
1314365337.51251435,0.00003261,0.00006623,-60163.56640625,0,1,0
1314365337.55654311,0.00003267,0.00006621,-60165.62890625,0,1,0
1314365337.61354208,0.00003267,0.00006621,-60167.28125000,0,1,0
1314365337.65649724,0.00003267,0.00006621,-60169.75390625,0,1,0
1314365337.71347404,0.00003267,0.00006621,-60171.40625000,0,1,0
1314365337.76453018,0.00003267,0.00006621,-60173.87890625,0,1,0
1314365337.81262565,0.00003260,0.00006622,-60175.94140625,0,1,0
1314365337.86549568,0.00003267,0.00006620,-60178.00390625,0,1,0
1314365337.90562677,0.00003260,0.00006622,-60180.06640625,0,1,0
1314365337.96461225,0.00003260,0.00006622,-60181.71875000,0,1,0
1314365338.01358008,0.00003260,0.00006622,-60184.19140625,0,1,0
1314365338.06462979,0.00003266,0.00006620,-60186.25390625,0,1,0
1314365338.11350346,0.00003260,0.00006622,-60188.31640625,0,1,0
1314365338.15656829,0.00003266,0.00006620,-60190.37890625,0,1,0
1314365338.21249866,0.00003266,0.00006620,-60192.03125000,0,1,0
1314365338.26556039,0.00003266,0.00006620,-60194.50781250,0,1,0
1314365338.31349850,0.00003260,0.00006622,-60196.57031250,0,1,0
1314365338.36457014,0.00003266,0.00006620,-60198.63281250,0,1,0
1314365338.41253138,0.00003259,0.00006622,-60200.69531250,0,1,0
1314365338.46468019,0.00003266,0.00006620,-60202.75781250,0,1,0
1314365338.51348662,0.00003259,0.00006622,-60204.82031250,0,1,0
1314365338.56492281,0.00003265,0.00006620,-60206.88281250,0,1,0
1314365338.60462308,0.00003259,0.00006622,-60208.94531250,0,1,0
1314365338.66585875,0.00003259,0.00006622,-60210.59765625,0,1,0
1314365338.71256423,0.00003259,0.00006622,-60213.07421875,0,1,0
1314365338.76451802,0.00003265,0.00006620,-60215.13671875,0,1,0
1314365338.81249738,0.00003259,0.00006622,-60217.19921875,0,1,0
1314365338.86549926,0.00003265,0.00006620,-60219.26171875,0,1,0
1314365338.90556407,0.00003259,0.00006622,-60221.32421875,0,1,0
1314365338.96551776,0.00003259,0.00006622,-60222.97656250,0,1,0
1314365339.01392627,0.00003258,0.00006622,-60225.44921875,0,1,0
1314365339.06550145,0.00003265,0.00006620,-60227.51562500,0,1,0
1314365339.11350608,0.00003258,0.00006622,-60229.57812500,0,1,0
1314365339.16447735,0.00003264,0.00006620,-60231.64062500,0,1,0
1314365339.20949531,0.00003258,0.00006622,-60233.70312500,0,1,0
1314365339.26552653,0.00003258,0.00006622,-60235.35546875,0,1,0
1314365339.31348801,0.00003258,0.00006622,-60237.83203125,0,1,0
1314365339.36406755,0.00003264,0.00006620,-60239.89453125,0,1,0
1314365339.41346908,0.00003258,0.00006622,-60241.95703125,0,1,0
1314365339.46546149,0.00003264,0.00006619,-60244.01953125,0,1,0
1314365339.51290321,0.00003258,0.00006622,-60246.08593750,0,1,0
1314365339.56456041,0.00003264,0.00006619,-60248.14843750,0,1,0
1314365339.60557151,0.00003257,0.00006622,-60250.21093750,0,1,0
1314365339.66551089,0.00003257,0.00006622,-60251.86328125,0,1,0
1314365339.71345830,0.00003257,0.00006621,-60254.33984375,0,1,0
1314365339.75649238,0.00003263,0.00006619,-60256.40234375,0,1,0
1314365339.81253958,0.00003263,0.00006619,-60258.05468750,0,1,0
1314365339.86548710,0.00003263,0.00006619,-60260.53125000,0,1,0
1314365339.91357136,0.00003257,0.00006621,-60262.59375000,0,1,0
1314365339.96450639,0.00003263,0.00006619,-60264.65625000,0,1,0
1314365340.02552795,0.00003257,0.00006621,-60266.72265625,0,1,0
1314365340.06547809,0.00003257,0.00006621,-60269.19921875,0,1,0
1314365340.11346078,0.00003257,0.00006621,-60270.84765625,0,1,0
1314365340.15647984,0.00003263,0.00006619,-60272.91406250,0,1,0
1314365340.21249938,0.00003263,0.00006619,-60274.56250000,0,1,0
1314365340.26544118,0.00003262,0.00006619,-60277.03906250,0,1,0
1314365340.31256676,0.00003256,0.00006621,-60279.10546875,0,1,0
1314365340.36456513,0.00003262,0.00006619,-60281.16796875,0,1,0
1314365340.41373420,0.00003256,0.00006621,-60283.23437500,0,1,0
1314365340.46452689,0.00003262,0.00006619,-60285.29687500,0,1,0
1314365340.51344538,0.00003256,0.00006621,-60287.35937500,0,1,0
1314365340.56499767,0.00003262,0.00006619,-60289.42578125,0,1,0
1314365340.61350155,0.00003256,0.00006621,-60291.48828125,0,1,0
1314365340.66547656,0.00003262,0.00006619,-60293.55468750,0,1,0
1314365340.71341658,0.00003256,0.00006621,-60295.61718750,0,1,0
1314365340.76619458,0.00003262,0.00006619,-60297.67968750,0,1,0
1314365340.81742620,0.00003256,0.00006621,-60299.74609375,0,1,0
1314365340.86544633,0.00003261,0.00006619,-60301.80859375,0,1,0
1314365340.91345263,0.00003255,0.00006621,-60303.87500000,0,1,0
1314365340.96548176,0.00003261,0.00006619,-60305.93750000,0,1,0
1314365341.01249886,0.00003255,0.00006621,-60308.00390625,0,1,0
1314365341.06551003,0.00003261,0.00006619,-60310.06640625,0,1,0
1314365341.11292863,0.00003255,0.00006621,-60312.13281250,0,1,0
1314365341.16452861,0.00003261,0.00006619,-60314.19531250,0,1,0
1314365341.21340370,0.00003255,0.00006621,-60316.26171875,0,1,0
1314365341.26551580,0.00003261,0.00006619,-60318.32421875,0,1,0
1314365341.31344604,0.00003255,0.00006621,-60320.39062500,0,1,0
1314365341.36546087,0.00003261,0.00006619,-60322.45312500,0,1,0
1314365341.41349578,0.00003255,0.00006621,-60324.51953125,0,1,0
1314365341.46547699,0.00003260,0.00006618,-60326.58203125,0,1,0
1314365341.51543498,0.00003254,0.00006621,-60328.64843750,0,1,0
1314365341.56244802,0.00003260,0.00006618,-60330.71093750,0,1,0
1314365341.62549591,0.00003254,0.00006621,-60332.77734375,0,1,0
1314365341.66455650,0.00003254,0.00006621,-60335.25390625,0,1,0
1314365341.71345854,0.00003254,0.00006621,-60336.90625000,0,1,0
1314365341.76550174,0.00003260,0.00006618,-60338.96875000,0,1,0
1314365341.81352735,0.00003254,0.00006621,-60341.03515625,0,1,0
1314365341.86550879,0.00003260,0.00006618,-60343.09765625,0,1,0
1314365341.91287208,0.00003254,0.00006621,-60345.16406250,0,1,0
1314365341.96555257,0.00003259,0.00006618,-60347.23046875,0,1,0
1314365342.01746941,0.00003254,0.00006621,-60349.29296875,0,1,0
1314365342.06662011,0.00003259,0.00006618,-60351.35937500,0,1,0
1314365342.11345983,0.00003253,0.00006621,-60353.42578125,0,1,0
1314365342.16463590,0.00003259,0.00006618,-60355.48828125,0,1,0
1314365342.21748400,0.00003253,0.00006621,-60357.55468750,0,1,0
1314365342.26548076,0.00003259,0.00006618,-60359.62109375,0,1,0
1314365342.31345892,0.00003253,0.00006621,-60361.68359375,0,1,0
1314365342.36450815,0.00003259,0.00006618,-60363.75000000,0,1,0
1314365342.41345215,0.00003253,0.00006620,-60365.81640625,0,1,0
1314365342.46512365,0.00003259,0.00006618,-60367.87890625,0,1,0
1314365342.51351714,0.00003253,0.00006620,-60369.94531250,0,1,0
1314365342.56526899,0.00003258,0.00006618,-60372.01171875,0,1,0
1314365342.61253357,0.00003253,0.00006620,-60374.07812500,0,1,0
1314365342.66551781,0.00003258,0.00006618,-60376.14062500,0,1,0
1314365342.71355128,0.00003253,0.00006620,-60378.20703125,0,1,0
1314365342.76539207,0.00003258,0.00006618,-60380.27343750,0,1,0
1314365342.81345057,0.00003252,0.00006620,-60382.33984375,0,1,0
1314365342.86542630,0.00003258,0.00006618,-60384.40234375,0,1,0
1314365342.91349769,0.00003252,0.00006620,-60386.46875000,0,1,0
1314365342.96456361,0.00003258,0.00006618,-60388.53515625,0,1,0
1314365343.01653266,0.00003252,0.00006620,-60390.60156250,0,1,0
1314365343.06331420,0.00003258,0.00006618,-60392.66406250,0,1,0
1314365343.11335588,0.00003252,0.00006620,-60394.73046875,0,1,0
1314365343.16466141,0.00003257,0.00006618,-60396.79687500,0,1,0
1314365343.21735525,0.00003252,0.00006620,-60398.86328125,0,1,0
1314365343.26697445,0.00003257,0.00006618,-60400.92968750,0,1,0
1314365343.31344414,0.00003252,0.00006620,-60402.99218750,0,1,0
